Estación de Mariquina
Ultimos registro cada 15 minutos 96
| N° | Estación | Fecha / Hora | Temperatura | Humedad | Lluvia | Velocidad | Dirección | Radiación | Presion |
| 96 | Mariquina | 31-08-2026 23:45 | 8,4 | 98,5 | 0 | 0 | 62 | 0,6 | 1019,2 |
| 95 | Mariquina | 31-08-2026 23:30 | 8,5 | 98,3 | 0,2 | 0 | 62 | 0,6 | 1019,5 |
| 94 | Mariquina | 31-08-2026 23:15 | 8,5 | 98,2 | 0,4 | 0 | 62 | 0,6 | 1019,9 |
| 93 | Mariquina | 31-08-2026 23:00 | 8,6 | 97,8 | 0 | 0 | 66 | 0,6 | 1019,9 |
| 92 | Mariquina | 31-08-2026 22:45 | 8,7 | 97,6 | 0 | 0 | 35 | 0,6 | 1019,7 |
| 91 | Mariquina | 31-08-2026 22:30 | 8,7 | 97,4 | 0 | 0 | 25 | 0,6 | 1020 |
| 90 | Mariquina | 31-08-2026 22:15 | 8,7 | 97,7 | 0,2 | 0 | 11 | 0,6 | 1019,9 |
| 89 | Mariquina | 31-08-2026 22:00 | 8,8 | 97,3 | 0 | 0 | 41 | 0,6 | 1020 |
| 88 | Mariquina | 31-08-2026 21:45 | 8,8 | 97 | 0,2 | 0 | 41 | 0,6 | 1020 |
| 87 | Mariquina | 31-08-2026 21:30 | 8,8 | 96,5 | 0 | 0 | 41 | 0,6 | 1020,1 |
| 86 | Mariquina | 31-08-2026 21:15 | 8,8 | 95,8 | 0 | 0 | 41 | 0,6 | 1020,2 |
| 85 | Mariquina | 31-08-2026 21:00 | 8,9 | 94,9 | 0 | 0 | 41 | 0,6 | 1019,9 |
| 84 | Mariquina | 31-08-2026 20:45 | 9 | 94,1 | 0 | 0 | 41 | 0,6 | 1019,9 |
| 83 | Mariquina | 31-08-2026 20:30 | 9,1 | 93,7 | 0 | 0 | 41 | 0,6 | 1019,8 |
| 82 | Mariquina | 31-08-2026 20:15 | 9,2 | 93,3 | 0 | 0 | 300 | 0,6 | 1019,8 |
| 81 | Mariquina | 31-08-2026 20:00 | 9 | 93,6 | 0 | 0 | 279 | 0,6 | 1019,8 |
| 80 | Mariquina | 31-08-2026 19:45 | 9 | 93,6 | 0 | 0 | 279 | 0,6 | 1019,6 |
| 79 | Mariquina | 31-08-2026 19:30 | 9 | 94,6 | 0 | 0 | 279 | 0,6 | 1019,4 |
| 78 | Mariquina | 31-08-2026 19:15 | 8,9 | 94,3 | 0 | 0 | 279 | 0,6 | 1019,5 |
| 77 | Mariquina | 31-08-2026 19:00 | 8,9 | 92,7 | 0 | 0 | 279 | 0,6 | 1019,4 |
| 76 | Mariquina | 31-08-2026 18:45 | 9,3 | 91,3 | 0 | 0 | 279 | 0,6 | 1019,2 |
| 75 | Mariquina | 31-08-2026 18:30 | 9,7 | 89,8 | 0 | 0 | 279 | 0,6 | 1019,2 |
| 74 | Mariquina | 31-08-2026 18:15 | 9,9 | 87,5 | 0 | 0 | 279 | 3,1 | 1019,4 |
| 73 | Mariquina | 31-08-2026 18:00 | 10,5 | 82,9 | 0 | 0 | 281 | 15,6 | 1019,5 |
| 72 | Mariquina | 31-08-2026 17:45 | 11,1 | 79,1 | 0 | 0 | 281 | 33,1 | 1019,5 |
| 71 | Mariquina | 31-08-2026 17:30 | 11,6 | 77,3 | 0 | 0 | 239 | 55,6 | 1019,3 |
| 70 | Mariquina | 31-08-2026 17:15 | 12 | 76,9 | 0 | 0 | 284 | 69,4 | 1019,2 |
| 69 | Mariquina | 31-08-2026 17:00 | 12,1 | 76,2 | 0 | 0 | 345 | 90,6 | 1019,2 |
| 68 | Mariquina | 31-08-2026 16:45 | 12,1 | 78 | 0 | 0 | 303 | 115,6 | 1019,2 |
| 67 | Mariquina | 31-08-2026 16:30 | 12,1 | 79,3 | 0 | 0 | 314 | 126,9 | 1019,3 |
| 66 | Mariquina | 31-08-2026 16:15 | 12,7 | 76,8 | 0 | 0 | 281 | 148,1 | 1019,5 |
| 65 | Mariquina | 31-08-2026 16:00 | 12,5 | 80,2 | 0 | 0 | 286 | 139,4 | 1019,7 |
| 64 | Mariquina | 31-08-2026 15:45 | 12,6 | 80 | 0 | 0 | 317 | 130,6 | 1019,4 |
| 63 | Mariquina | 31-08-2026 15:30 | 12,9 | 78,3 | 0 | 0 | 334 | 160,6 | 1019,2 |
| 62 | Mariquina | 31-08-2026 15:15 | 13,9 | 74 | 0 | 0 | 343 | 301,9 | 1018,8 |
| 61 | Mariquina | 31-08-2026 15:00 | 13,1 | 77,4 | 0 | 0 | 337 | 204,4 | 1018,9 |
| 60 | Mariquina | 31-08-2026 14:45 | 13,2 | 78 | 0 | 0 | 334 | 146,9 | 1019,1 |
| 59 | Mariquina | 31-08-2026 14:30 | 12,3 | 80 | 0 | 0 | 319 | 199,4 | 1019,2 |
| 58 | Mariquina | 31-08-2026 14:15 | 13,2 | 76,8 | 0 | 0 | 327 | 263,1 | 1019,3 |
| 57 | Mariquina | 31-08-2026 14:00 | 13,3 | 76,9 | 0 | 0 | 303 | 290,6 | 1019,3 |
| 56 | Mariquina | 31-08-2026 13:45 | 13,9 | 76,3 | 0 | 0 | 323 | 330,6 | 1019,4 |
| 55 | Mariquina | 31-08-2026 13:30 | 13,7 | 77,9 | 0 | 0 | 316 | 311,9 | 1019,3 |
| 54 | Mariquina | 31-08-2026 13:15 | 14,6 | 78,7 | 0 | 0 | 285 | 385,6 | 1020,2 |
| 53 | Mariquina | 31-08-2026 13:00 | 13,7 | 83,5 | 0 | 0 | 277 | 413,1 | 1021,5 |
| 52 | Mariquina | 31-08-2026 12:45 | 13,6 | 85,3 | 0 | 0 | 326 | 418,1 | 1023,5 |
| 51 | Mariquina | 31-08-2026 12:30 | 13,7 | 85 | 0 | 0 | 39 | 655,6 | 1024,4 |
| 50 | Mariquina | 31-08-2026 12:15 | 13 | 92 | 0 | 0 | 128 | 603,1 | 1027,4 |
| 49 | Mariquina | 31-08-2026 12:00 | 11,3 | 97 | 0 | 0 | 188 | 604,4 | 1021,4 |
| 48 | Mariquina | 31-08-2026 11:45 | 10,3 | 100 | 0 | 0 | 184 | 249,4 | 1018,7 |
| 47 | Mariquina | 31-08-2026 11:30 | 9,8 | 100 | 0 | 0 | 198 | 270,6 | 1017 |
| 46 | Mariquina | 31-08-2026 11:15 | 10,1 | 100 | 0 | 0 | 146 | 285,6 | 1017,4 |
| 45 | Mariquina | 31-08-2026 11:00 | 9,2 | 100 | 0 | 0 | 21 | 279,4 | 1013,8 |
| 44 | Mariquina | 31-08-2026 10:45 | 8,4 | 100 | 0 | 0 | 37 | 259,4 | 1010,3 |
| 43 | Mariquina | 31-08-2026 10:30 | 7,3 | 100 | 0 | 0 | 52 | 394,4 | 1006,4 |
| 42 | Mariquina | 31-08-2026 10:15 | 7 | 100 | 0 | 0 | 34 | 160,6 | 1005 |
| 41 | Mariquina | 31-08-2026 10:00 | 7 | 100 | 0 | 0 | 39 | 190,6 | 1004,5 |
| 40 | Mariquina | 31-08-2026 09:45 | 6,6 | 100 | 0 | 0 | 49 | 96,9 | 1002,6 |
| 39 | Mariquina | 31-08-2026 09:30 | 6,4 | 100 | 0 | 0 | 45 | 58,1 | 1001,6 |
| 38 | Mariquina | 31-08-2026 09:15 | 6,4 | 100 | 0 | 0 | 22 | 91,9 | 1001,6 |
| 37 | Mariquina | 31-08-2026 09:00 | 6,1 | 100 | 0 | 0 | 18 | 63,1 | 999,8 |
| 36 | Mariquina | 31-08-2026 08:45 | 5,8 | 100 | 0 | 0 | 39 | 41,9 | 998,4 |
| 35 | Mariquina | 31-08-2026 08:30 | 5,7 | 100 | 0 | 0 | 38 | 41,9 | 997,9 |
| 34 | Mariquina | 31-08-2026 08:15 | 5,6 | 100 | 0,2 | 0 | 38 | 23,1 | 996,8 |
| 33 | Mariquina | 31-08-2026 08:00 | 5,6 | 100 | 0 | 0 | 29 | 16,9 | 996,5 |
| 32 | Mariquina | 31-08-2026 07:45 | 5,4 | 100 | 0 | 0 | 15 | 9,4 | 995,7 |
| 31 | Mariquina | 31-08-2026 07:30 | 5,3 | 100 | 0 | 0 | 15 | 1,9 | 995,2 |
| 30 | Mariquina | 31-08-2026 07:15 | 5,2 | 100 | 0 | 0 | 15 | 0,6 | 994,9 |
| 29 | Mariquina | 31-08-2026 07:00 | 5,2 | 100 | 0 | 0 | 15 | 0,6 | 994,8 |
| 28 | Mariquina | 31-08-2026 06:45 | 5,2 | 100 | 0 | 0 | 15 | 0,6 | 994,5 |
| 27 | Mariquina | 31-08-2026 06:30 | 5,1 | 100 | 0 | 0 | 15 | 0,6 | 994,4 |
| 26 | Mariquina | 31-08-2026 06:15 | 5,1 | 100 | 0 | 0 | 15 | 0,6 | 994,2 |
| 25 | Mariquina | 31-08-2026 06:00 | 5 | 100 | 0 | 0 | 15 | 0,6 | 994,3 |
| 24 | Mariquina | 31-08-2026 05:45 | 5,1 | 100 | 0 | 0 | 15 | 0,6 | 994,4 |
| 23 | Mariquina | 31-08-2026 05:30 | 5,1 | 100 | 0 | 0 | 15 | 0,6 | 994,2 |
| 22 | Mariquina | 31-08-2026 05:15 | 5 | 100 | 0 | 0 | 17 | 0,6 | 993,9 |
| 21 | Mariquina | 31-08-2026 05:00 | 4,9 | 100 | 0 | 0 | 20 | 0,6 | 993,6 |
| 20 | Mariquina | 31-08-2026 04:45 | 5,1 | 100 | 0 | 0 | 4 | 0,6 | 994,2 |
| 19 | Mariquina | 31-08-2026 04:30 | 5,2 | 100 | 0 | 0 | 358 | 0,6 | 994,9 |
| 18 | Mariquina | 31-08-2026 04:15 | 5,3 | 100 | 0 | 0 | 358 | 0,6 | 994,9 |
| 17 | Mariquina | 31-08-2026 04:00 | 5,3 | 100 | 0 | 0 | 358 | 0,6 | 995,1 |
| 16 | Mariquina | 31-08-2026 03:45 | 5,4 | 100 | 0 | 0 | 358 | 0,6 | 995,2 |
| 15 | Mariquina | 31-08-2026 03:30 | 5,3 | 100 | 0 | 0 | 358 | 0,6 | 994,8 |
| 14 | Mariquina | 31-08-2026 03:15 | 5,3 | 100 | 0 | 0 | 358 | 0,6 | 994,8 |
| 13 | Mariquina | 31-08-2026 03:00 | 5,2 | 100 | 0 | 0 | 358 | 0,6 | 994,9 |
| 12 | Mariquina | 31-08-2026 02:45 | 5,4 | 100 | 0 | 0 | 1 | 0,6 | 995,4 |
| 11 | Mariquina | 31-08-2026 02:30 | 5,6 | 100 | 0 | 0 | 11 | 0,6 | 995,9 |
| 10 | Mariquina | 31-08-2026 02:15 | 5,8 | 100 | 0 | 0 | 358 | 0,6 | 996,8 |
| 9 | Mariquina | 31-08-2026 02:00 | 5,9 | 100 | 0 | 0 | 27 | 0,6 | 997,6 |
| 8 | Mariquina | 31-08-2026 01:45 | 6,2 | 100 | 0 | 0 | 32 | 0,6 | 998 |
| 7 | Mariquina | 31-08-2026 01:30 | 6,2 | 100 | 0 | 0 | 327 | 0,6 | 998,2 |
| 6 | Mariquina | 31-08-2026 01:15 | 6,2 | 100 | 0,2 | 0 | 306 | 0,6 | 997,7 |
| 5 | Mariquina | 31-08-2026 01:00 | 6 | 100 | 0 | 0 | 306 | 0,6 | 997 |
| 4 | Mariquina | 31-08-2026 00:45 | 5,8 | 100 | 0 | 0 | 306 | 0,6 | 996,3 |
| 3 | Mariquina | 31-08-2026 00:30 | 5,7 | 100 | 0 | 0 | 306 | 0,6 | 995,5 |
| 2 | Mariquina | 31-08-2026 00:15 | 5,5 | 100 | 0 | 0 | 306 | 0,6 | 994,8 |
| 1 | Mariquina | 31-08-2026 00:00 | 5,3 | 100 | 0 | 0 | 306 | 0,6 | 993,5 |